Regional Weather Roundup
Issued by NWS

Home | Current Version | Previous Version | Text Only | Print | Product List | Glossary On
Versions: 1 2 3 4 5 6 7 8 9 10 11 12 13 14 15 16 17 18 19 20 21 22 23 24 25 26 27 28 29 30 31 32 33 34 35 36 37 38 39 40 41 42 43 44 45 46 47 48 49 50
000
ASUS45 KCYS 231810
RWRWY

WYOMING REGIONAL WEATHER ROUNDUP
NATIONAL WEATHER SERVICE CHEYENNE WY
1200 PM MDT SAT AUG 23 2014

NOTE:  "FAIR" INDICATES FEW OR NO CLOUDS BELOW 12,000 FEET
WITH NO SIGNIFICANT WEATHER AND/OR OBSTRUCTIONS TO VISIBILITY.

WYZ001-231900-
YELLOWSTONE NATIONAL PARK

CITY           SKY/WX    TMP DP  RH WIND       PRES   REMARKS
LK YELLOWSTONE   N/A     46  41  82 VRB6      30.11R
6HR MIN TEMP:  40; 6HR MAX TEMP:  51; 6HR PCP:  0.01;

W YELLOWSTONE  NOT AVBL

$$
WYZ002>013-054>058-071-098>099-231900-
NORTHERN WYOMING

CITY           SKY/WX    TMP DP  RH WIND       PRES   REMARKS
JACKSON        PTSUNNY   54  43  66 S7        30.07S
CODY           CLOUDY    57  54  88 NE6       29.94S
GREYBULL       CLOUDY    59  54  83 N10       29.90F
6HR MIN TEMP:  57; 6HR MAX TEMP:  59; 6HR PCP:  0.23;

WORLAND        CLOUDY    58  56  93 N5        29.91F
6HR MIN TEMP:  56; 6HR MAX TEMP:  58; 6HR PCP:  0.32;

SHERIDAN       CLOUDY    60  56  86 NW12      29.84S
6HR MIN TEMP:  59; 6HR MAX TEMP:  63; 6HR PCP:  0.19;

BUFFALO        CLOUDY    63  58  83 N12       29.86F
6HR MIN TEMP:  57; 6HR MAX TEMP:  63; 6HR PCP:  0.06;

GILLETTE       MOSUNNY   71  60  68 S14       29.81F
6HR MIN TEMP:  59; 6HR MAX TEMP:  71; 6HR PCP:  0.01;

HULETT         CLOUDY    68  63  83 MISG      29.86
NEWCASTLE      MOCLDY    70  55  60 S9        29.87

$$
WYZ014>020-022>026-101>103-231900-
CENTRAL WYOMING

CITY           SKY/WX    TMP DP  RH WIND       PRES   REMARKS
BIG PINEY      LGT RAIN  52  44  74 CALM      30.09S
6HR MIN TEMP:  44; 6HR MAX TEMP:  52; 6HR PCP: TRACE;

PINEDALE       CLOUDY    52  43  71 W9        30.09S
DUBOIS         MOCLDY    55  37  50 W25       30.02S
LANDER         PTSUNNY   66  48  52 VRB6      29.93F
6HR MIN TEMP:  51; 6HR MAX TEMP:  66;

RIVERTON       PTSUNNY   61  48  62 CALM      29.95F
6HR MIN TEMP:  52; 6HR MAX TEMP:  61; 6HR PCP: TRACE;

CASPER         CLOUDY    63  46  54 SW23G29   29.96S
6HR MIN TEMP:  54; 6HR MAX TEMP:  63; 6HR PCP:  0.04;

DOUGLAS        MOSUNNY   73  47  39 W17G25    29.92F
6HR MIN TEMP:  57; 6HR MAX TEMP:  73;


$$
WYZ021-027>030-104>119-231900-
SOUTHERN WYOMING

CITY           SKY/WX    TMP DP  RH WIND       PRES   REMARKS
EVANSTON       MOSUNNY   56  42  59 W14G23    30.13S
6HR MIN TEMP:  42; 6HR MAX TEMP:  56; 6HR PCP:  0.01;

KEMMERER       MOCLDY    54  41  62 W10G20    30.13S
FORT BRIDGER   MOCLDY    57  44  62 W17G23    30.16S
ROCK SPRINGS   CLOUDY    48  41  76 W15       30.11R
6HR MIN TEMP:  44; 6HR MAX TEMP:  50; 6HR PCP: TRACE;

DIXON          LGT RAIN  52  49  88 SW3       30.13F
RAWLINS        LGT RAIN  53  46  77 SW25G33   30.09R
6HR MIN TEMP:  47; 6HR MAX TEMP:  55; 6HR PCP: TRACE;

SARATOGA       DRIZZLE   52  45  76 MISG      30.11R
LARAMIE        CLOUDY    61  40  45 SW12      30.05S
6HR MIN TEMP:  45; 6HR MAX TEMP:  64; 6HR PCP: TRACE;

CHEYENNE       CLOUDY    69  50  50 SW7G17    29.98S
6HR MIN TEMP:  56; 6HR MAX TEMP:  72;

TORRINGTON     SUNNY     76  55  48 W7        29.87S
6HR MIN TEMP:  59; 6HR MAX TEMP:  76;

PINE BLUFFS    FAIR      75  50  41 W8        29.93F

$$


USA.gov is the U.S. government's official web portal to all federal, state and local government web resources and services.